Weather History for KRDM - March, 2013

Change the Weather History Date:

Friday, March 22, 2013

  Actual Average Record
Temperature  
Mean Temperature 31 °F 41 °F  
Max Temperature 41 °F 55 °F 76 °F (1960)
Min Temperature 21 °F 27 °F 12 °F (1994)
Degree Days  
Heating Degree Days 34 24  
Month to date heating degree days 565 567  
Since 1 July heating degree days 5032 5240  
Cooling Degree Days 0 0  
Month to date cooling degree days 0 0  
Year to date cooling degree days 0 0  
Moisture  
Dew Point 18 °F    
Average Humidity 59    
Maximum Humidity 88    
Minimum Humidity 30    
Precipitation  
Precipitation T in 0.02 in 0.42 in (1972)
Month to date precipitation 0.20 0.46  
Year to date precipitation 0.62 2.08  
Sea Level Pressure  
Sea Level Pressure 30.24 in    
Wind  
Wind Speed 10 mph (WNW)    
Max Wind Speed 24 mph    
Max Gust Speed 32 mph    
Visibility 9 miles    
Events Snow    
T = Trace of Precipitation, MM = Missing Value Source: NWS Daily Summary

Daily Weather History Graph

Daily Weather History Graph

Search for Another Location

Airport or City:

Trip Planner

Search our weather history database for the weather conditions in past years. The results will help you decide how hot, cold, wet, or windy it might be!

Date:

Astronomy

Mar. 22, 2013 Rise Set
Actual Time 7:03 AM PDT 7:19 PM PDT
Civil Twilight 6:34 AM PDT 7:48 PM PDT
Nautical Twilight 6:00 AM PDT 8:23 PM PDT
Astronomical Twilight 5:25 AM PDT 8:58 PM PDT
Moon 2:43 PM PDT (3/22) 4:16 AM PDT (3/22)
Length of Visible Light 13h 14m
Length of Day
12h 16m
Waxing Gibbous, 78% of the Moon is Illuminated
Mar 22
Waxing Gibbous
Mar 27
Full
Apr 2
Last Quarter
Apr 10
New
Apr 18
First Quarter

Hourly Weather History & Observations

Time (PDT) Temp. Windchill Dew Point Humidity Pressure Visibility Wind Dir Wind Speed Gust Speed Precip Events Conditions
12:56 AM 28.9 °F 18.6 °F 21.0 °F 72% 30.20 in 7.0 mi West 12.7 mph - 0.00 in Snow Light Snow
1:56 AM 27.0 °F 20.5 °F 21.0 °F 78% 30.20 in 10.0 mi WNW 5.8 mph - 0.00 in   Mostly Cloudy
2:56 AM 28.0 °F 20.0 °F 19.9 °F 72% 30.21 in 10.0 mi West 8.1 mph - N/A   Overcast
3:56 AM 28.0 °F 17.5 °F 23.0 °F 81% 30.19 in 4.0 mi West 12.7 mph - 0.00 in Snow Light Snow
4:18 AM 28.4 °F 19.7 °F 23.0 °F 80% 30.15 in 1.8 mi West 9.2 mph - 0.00 in Snow Light Snow
4:26 AM 26.6 °F 19.1 °F 23.0 °F 86% 30.15 in 3.0 mi West 6.9 mph - 0.00 in Snow Light Snow
4:56 AM 26.1 °F 21.9 °F 23.0 °F 88% 30.20 in 10.0 mi WSW 3.5 mph - 0.00 in   Overcast
5:56 AM 25.0 °F 15.5 °F 21.0 °F 85% 30.22 in 10.0 mi WNW 9.2 mph - N/A   Clear
6:56 AM 24.1 °F 16.0 °F 19.9 °F 84% 30.23 in 10.0 mi West 6.9 mph - N/A   Clear
7:56 AM 25.0 °F - 19.9 °F 81% 30.25 in 10.0 mi Calm Calm - N/A   Clear
8:56 AM 30.0 °F 21.1 °F 19.0 °F 64% 30.23 in 10.0 mi WNW 10.4 mph - N/A   Clear
9:56 AM 33.1 °F 24.4 °F 17.1 °F 52% 30.24 in 10.0 mi NW 11.5 mph - N/A   Partly Cloudy
10:56 AM 35.1 °F 25.2 °F 15.1 °F 44% 30.25 in 10.0 mi WNW 16.1 mph 21.9 mph N/A   Partly Cloudy
11:56 AM 37.0 °F 27.0 °F 14.0 °F 39% 30.24 in 10.0 mi WNW 18.4 mph 21.9 mph N/A   Overcast
12:56 PM 37.9 °F 30.9 °F 15.1 °F 39% 30.23 in 10.0 mi WNW 10.4 mph 18.4 mph N/A   Overcast
1:56 PM 37.9 °F 28.2 °F 12.9 °F 36% 30.23 in 10.0 mi NW 18.4 mph 26.5 mph N/A   Mostly Cloudy
2:56 PM 39.9 °F 30.8 °F 14.0 °F 35% 30.22 in 10.0 mi West 18.4 mph 25.3 mph N/A   Overcast
3:56 PM 39.0 °F 30.3 °F 10.9 °F 32% 30.22 in 10.0 mi NW 16.1 mph 23.0 mph N/A   Overcast
4:56 PM 41.0 °F 32.2 °F 12.9 °F 32% 30.23 in 10.0 mi WNW 18.4 mph 21.9 mph N/A   Scattered Clouds
5:56 PM 37.0 °F 27.4 °F 17.1 °F 44% 30.26 in 10.0 mi West 17.3 mph - N/A   Mostly Cloudy
6:56 PM 34.0 °F 24.2 °F 15.1 °F 46% 30.28 in 10.0 mi WNW 15.0 mph 20.7 mph N/A   Partly Cloudy
7:56 PM 30.9 °F 22.8 °F 19.0 °F 61% 30.30 in 10.0 mi WNW 9.2 mph - N/A   Clear
9:56 PM 27.0 °F 23.0 °F 19.0 °F 72% 30.32 in 10.0 mi NNW 3.5 mph - N/A   Mostly Cloudy
10:56 PM 21.0 °F - 17.1 °F 85% 30.33 in 10.0 mi Calm Calm - N/A   Scattered Clouds
11:56 PM 23.0 °F 18.4 °F 18.0 °F 81% 30.34 in 10.0 mi South 3.5 mph - N/A   Overcast